National Weather Service United States Department of Commerce
Data are updated at 11 and 26 past the hour. Coastal data is often not avaialable until 26 past the hour.
Check the Preious Version of the data HERE if data are missing.  

NYCBOYDAT LOC
TTAA00 KOKX 211728

Coastal Waters Roundup...For Informational Purposes Only
National Weather Service New York NY
100 PM EDT TUE SEP 21 2021

...Ocean Waters...
  
STATION/POSITION TIME  TEMP    WIND        PRES    WAVE   WND WV SWELL
                       AIR SEA DIR/SP/G            HT/PER HT/PER HT/PER/DIR
                 (UTC) (F)     (DEG/KT/KT) (MB)    (FT/S) (FT/S) (FT/S/D)
NY Harb Entrance 1710           80/ 12/ 14 1026.5
20 S Fire Is NY  1710      71              1026.6
23 SSW Montauk P 1710   71 71  110/  8/ 10 1028.2
25 SE Block IS   1656      70                N/A     3/12   3/10   2/120/12
15 E Barnegat NJ 1656      72                N/A     4/17   3/ 9   2/110/17
Texas Tower #4   1710   74 73   90/ 12/ 14 1026.9

...Long Island South Shore (WeatherFlow - Wind is MPH)...
  
STATION/POSITION TIME  TEMP    WIND        PRES    WAVE   WND WV SWELL
                       AIR SEA DIR/SP/G            HT/PER HT/PER HT/PER/DIR
                 (UTC) (F)     (DEG/KT/KT) (MB)    (FT/S) (FT/S) (FT/S/D)
Great South Bay  1645   71 78  100/ 10/ 14   N/A

CITY           SKY/WX    TMP DP  RH WIND       PRES   REMARKS
Breezy Point     N/A     72 N/A N/A E10         N/A                   
Jones Beach CG   N/A     70 N/A N/A E10G16      N/A                   
Amityville       N/A     72 N/A N/A E12         N/A                   
Boat Channel     N/A     72 N/A N/A E15         N/A                   
Fire Island CG   N/A     72 N/A N/A E12G17      N/A                   
Pt O Woods       N/A     70 N/A N/A E14         N/A                   
Blue Pt          N/A    N/A N/A N/A E15         N/A                   
East Moriches    N/A     70 N/A N/A E17         N/A                   
Shinnecock Inl   N/A     70 N/A N/A E15         N/A                   
Mecox Bay        N/A     70 N/A N/A E9          N/A                   
Napeaque         N/A     75 N/A N/A SE12        N/A                   

...Long Island Sound...
  
STATION/POSITION TIME  TEMP    WIND        PRES    WAVE   WND WV SWELL
                       AIR SEA DIR/SP/G            HT/PER HT/PER HT/PER/DIR
                 (UTC) (F)     (DEG/KT/KT) (MB)    (FT/S) (FT/S) (FT/S/D)
Kings Point      1654   71      60/  9/ 12 1028.5
Execution Rocks  1645   70      60/ 14/ 16   N/A
Western LI Sound 1645   69      70/ 12/ 17   N/A
Bridgeport NOS   1636   71 74   90/  7/ 10 1027.9
New Haven NOS    1636   70 72  130/  7/ 10 1029.2
Central LI Sound NOT AVBL
Ledge Light      1640   69     100/ 12/ 13 1028.2

...Long Island Sound Coastal  (WeatherFlow - Wind is MPH)...
  
CITY           SKY/WX    TMP DP  RH WIND       PRES   REMARKS
Larchmont        N/A     68 N/A N/A NE13        N/A                   
Norwalk          N/A     68 N/A N/A E14         N/A                   
Bayville         N/A     68 N/A N/A NE15        N/A                   
Eatons Neck      N/A     68 N/A N/A E9G18       N/A                   
Mt Sinai         N/A     75 N/A N/A NE7         N/A                   
New Haven Harb   N/A     72 N/A N/A E10G16      N/A                   
Hammonasset      N/A     68 N/A N/A SE12        N/A                   
USCG Academy     N/A     70 N/A N/A SE12G17     N/A                   
Gull Island      N/A     68 N/A N/A E14         N/A                   
Fishers Island   N/A     68 N/A N/A E13         N/A                   

...Block Island Sound (WeatherFlow - Wind is MPH)...
  
CITY           SKY/WX    TMP DP  RH WIND       PRES   REMARKS
Block Island     N/A     68 N/A N/A E10         N/A                   
Ninigret Pond    N/A     70 N/A N/A E9          N/A                   
Point Judith     N/A     68 N/A N/A E10         N/A                   

...NY Harbor...
  
STATION/POSITION TIME  TEMP    WIND        PRES    WAVE   WND WV SWELL
                       AIR SEA DIR/SP/G            HT/PER HT/PER HT/PER/DIR
                 (UTC) (F)     (DEG/KT/KT) (MB)    (FT/S) (FT/S) (FT/S/D)
Bergen Point     NOT AVBL
Robbins Reef     1636   72     130/  8/  9 1027.3
Sandy Hook       1636   71 73  100/ 10/ 13 1027.8

...NY Harbor (WeatherFlow - Wind is MPH)...
  
CITY           SKY/WX    TMP DP  RH WIND       PRES   REMARKS
Bayonne          N/A     73 N/A N/A SE10        N/A                   
Perth Amboy      N/A     70 N/A N/A E12         N/A                   
Sandy Hook     NOT AVBL                                               

...New England Waters...
  
STATION/POSITION TIME  TEMP    WIND        PRES    WAVE   WND WV SWELL
                       AIR SEA DIR/SP/G            HT/PER HT/PER HT/PER/DIR
                 (UTC) (F)     (DEG/KT/KT) (MB)    (FT/S) (FT/S) (FT/S/D)
Buzzards Bay MA  1700          120/  7/  7 1030.0
Nantucket Shoals 1710   73 72  120/ 16/ 17 1028.2
Nantucket Sound  1710   70 72  120/ 12/ 16 1028.5
Boston Harbor    1710      66  100/  6/  8 1029.6
Mass Bay         1604   65     140/  8/ 10 1029.5    4/11
Jeffrey's Ledge  1656      66                N/A     3/11   3/ 9   2/100/11
Isle of Shoals   1700   65     140/  7/  8 1029.4
Mnt Desert Rock  1700          130/  7/  8 1031.0
Matinicus Rock M NOT AVBL
Gulf of Maine    1650   61 60  120/  6/  6 1029.7    2/16   2/ 3   2/120/16
12 SE Portland M 1710   64 64  140/  8/ 10 1029.3

...Southern NJ Coast...
  
STATION/POSITION TIME  TEMP    WIND        PRES    WAVE   WND WV SWELL
                       AIR SEA DIR/SP/G            HT/PER HT/PER HT/PER/DIR
                 (UTC) (F)     (DEG/KT/KT) (MB)    (FT/S) (FT/S) (FT/S/D)
Delaware Bay     1710   74 74   70/ 10/ 12 1025.4

...Mid-Atlantic and Southeast Coast... 
  
STATION/POSITION TIME  TEMP    WIND        PRES    WAVE   WND WV SWELL
                       AIR SEA DIR/SP/G            HT/PER HT/PER HT/PER/DIR
                 (UTC) (F)     (DEG/KT/KT) (MB)    (FT/S) (FT/S) (FT/S/D)
Thomas Point MD  1700   77 77   CALM  /  1 1025.9
Diamond Shoals N 1710   81 82  120/ 12/ 16 1022.2
Cape Lookout NC  1700   81     120/ 15/ 16 1022.0
Frying Pan Shls  1710   79 82  150/ 21/ 27 1019.4
Duck Pier NC     1648   78      70/ 12/ 14 1023.4
Folly Island SC  1700   77     200/ 12/ 13 1019.5
St Augustine FL  1700   81 84   50/  8/  9 1018.4
64 E VA Beach VA 1710   77 76   40/  2/  4 1023.0
Edisto SC        1710   79 83  230/ 12/ 14 1018.8
Grays Reef GA    1650   76 82  170/ 10/ 12 1017.7    3/ 7   2/ 4   2/100/ 7
20 E Cape Canave 1710   79 84  150/ 14/ 17 1018.2
South Hatteras N 1710   83 83  120/ 17/ 21 1019.2
Georges Bank     1710   70 67  130/ 12/ 14 1031.3
$$

 

Updated:  1/4/16